This demonstration page uses our WeatherBlox Daily Observations layout. Learn more.

39.92423, -83.80882

Hourly Observations for June 28, 2019

Temp ( °F °C ) Dew Point ( °F °C ) Humidity (%) Winds ( mph kmh ) Pressure ( in mb ) Visibility ( mi km ) Precip ( " mm )
12:56 am 00:56 Mostly Cloudy 71 21.7 63 17.1 75 75 S 8 13 30.17 1022 10 16.0934 0 0
1:56 am 01:56 Clear 69 20.7 63 17.1 80 80 Calm 30.18 1022 10 16.0934 0 0
2:56 am 02:56 Clear 67 19.5 63 17.3 87 87 Calm 30.17 1022 10 16.0934 0 0
3:56 am 03:56 Clear 67 19.6 63 17.2 86 86 Calm 30.17 1022 10 16.0934 0 0
4:56 am 04:56 Clear 67 19.3 63 17.2 88 88 Calm 30.16 1021 10 16.0934 0 0
5:56 am 05:56 Clear 66 19 63 17.1 89 89 Calm 30.19 1022 10 16.0934 0 0
6:56 am 06:56 Sunny 68 20 65 18.6 92 92 Calm 30.21 1023 10 16.0934 0 0
7:56 am 07:56 Sunny 71 21.9 67 19.4 86 86 SW 3 6 30.2 1023 10 16.0934 0 0
8:56 am 08:56 Sunny 78 25.6 70 21.2 77 77 SW 7 11 30.21 1023 10 16.0934 0 0
9:56 am 09:56 Partly Cloudy 82 27.5 69 20.8 67 67 SW 7 11 30.2 1023 10 16.0934 0 0
10:56 am 10:56 Mostly Sunny 83 28.6 69 20.6 62 62 WSW 7 11 30.2 1023 10 16.0934 0 0
11:56 am 11:56 Mostly Sunny 86 29.8 67 19.5 54 54 WSW 9 15 30.21 1023 10 16.0934 0 0
12:56 pm 12:56 Mostly Sunny 88 30.9 67 19.5 51 51 WSW 8 13 30.2 1023 10 16.0934 0 0
1:56 pm 13:56 Mostly Sunny 89 31.5 67 19.5 49 49 SW 10 17 30.18 1022 10 16.0934 0 0
2:56 pm 14:56 Mostly Sunny 89 31.9 67 19.5 48 48 S 6 9 30.16 1021 10 16.0934 0 0
3:56 pm 15:56 Mostly Sunny 87 30.8 66 19.1 50 50 W 5 7 30.15 1021 10 16.0934 0 0
4:56 pm 16:56 Mostly Sunny 90 32.2 68 19.8 48 48 SW 7 11 30.13 1020 10 16.0934 0 0
5:56 pm 17:56 Mostly Sunny 90 32.2 66 19.1 46 46 SW 6 9 30.11 1020 10 16.0934 0 0
6:56 pm 18:56 Mostly Sunny 89 31.7 66 19 47 47 SW 9 15 30.11 1020 10 16.0934 0 0
7:56 pm 19:56 Mostly Sunny 87 30.3 68 19.9 54 54 WSW 6 9 30.12 1020 10 16.0934 0 0
8:56 pm 20:56 Partly Cloudy 81 27.2 69 20.7 68 68 S 6 9 30.13 1020 10 16.0934 0 0
9:56 pm 21:56 Mostly Cloudy 80 26.7 69 20.5 69 69 SE 3 6 30.15 1021 10 16.0934 0 0
10:56 pm 22:56 Clear 78 25.3 69 20.5 75 75 S 9 15 30.14 1021 10 16.0934 0 0
11:56 pm 23:56 Clear 75 23.9 68 20 79 79 S 6 9 30.14 1021 10 16.0934 0 0

Powered by AerisWeather